Tracking 35274 objects as of 10-Sep-2026
HD Live streaming from Space Station
objects crossing your sky now

STARLINK-35247

Track STARLINK-35247 now!
10-day predictions
STARLINK-35247 is classified as:


NORAD ID: 65622
Int'l Code: 2025-210A
Launch date: September 18, 2025
Source: United States (US)
Launch site: AIR FORCE EASTERN TEST RANGE (AFETR)
Your satellite tracking list
Your tracking list is empty




NASA's NSSDC Master Catalog

Two Line Element Set (TLE):
1 65622U 25210A   26252.20746864  .00031882  00000-0  95052-3 0  9991
2 65622  53.1589 174.2986 0001050  74.2587 285.8531 15.34407089 55834
Source of the keplerian elements: AFSPC